Location: Gro�sch�nbrunn
(49.5760°N, 11.8868°E)
Time: 16:57:32
(UTC+00:00)

Cosmos 1627 Rocket - Pass Details

Date: 18 September 2020
Orbit: 951 x 1004 km, 82.9° (Epoch: 30 October)

Event Time Altitude Azimuth Distance (km) Brightness Sun altitude
Rises 19:41:59 0° 350° (N) 3,731 8.2 -22.8°
Reaches altitude 10° 19:44:31 10° 350° (N) 2,782 7.4 -23.2°
Maximum altitude 19:50:57 88° 263° (W) 1,012 4.5 -24.0°
Enters shadow 19:53:35 39° 174° (S) 1,472 5.1 -24.4°
